Location: Newark
(44.4156°N, 12.1972°E)
Time: 02:03:01
(UTC+00:00)

STARLINK-1066 - Pass Details

Date: 01 February 2020
Orbit: 349 x 351 km, 53.0° (Epoch: 17 February)

Event Time Altitude Azimuth Distance (km) Brightness Sun altitude
Rises 17:21:37 0° 302° (WNW) 2,167 7.4 -11.3°
Reaches altitude 10° 17:23:38 10° 300° (WNW) 1,321 6.3 -11.7°
Maximum altitude 17:26:34 67° 217° (SW) 385 3.0 -12.2°
Enters shadow 17:29:22 11° 134° (SE) 1,269 5.2 -12.7°
